Theta_e
288 287 288 288 288 289 289 290 294 296 296 296 295 294 295 295 297 297 296 295 294 293
288 288 288 287 288 289 290 292 293 295 296 295 296 297 298 298 297 297 295 294 297 295
288 289 289 288 288 289 290 290 292 293 295 295 294 294 295 295 295 295 297 297 295 292
288 289 288 288 288 289 289 289 292 292 292 294 292 293 292 293 293 293 293 294 294 295
288 288 287 287 288 289 289 289 290 291 291 292 294 293 291 291 291 290 291 293 292 292
288 287 287 288 288 289 288 288 289 289 290 291 293 293 293 292 291 291 291 292 293 293
287 288 288 288 289 288 288 288 288 289 289 290 293 294 293 291 292 292 291 292 291 293
288 289 289 288 289 289 288 288 289 289 289 291 294 294 292 290 292 291 289 290 291 292
288 288 288 288 289 288 288 287 288 287 288 291 293 299 297 292 288 289 288 288 290 292
288 288 288 289 289 288 287 287 286 287 287 288 291 300 297 295 288 287 286 286 286 289
288 287 288 288 288 288 288 287 287 287 287 287 290 299 298 295 287 287 286 286 286 290
288 287 287 286 287 288 288 287 287 288 287 287 287 297 298 293 287 287 286 287 287 291
288 287 286 286 287 288 287 289 289 288 287 292 287 295 297 295 290 288 286 286 287 293
288 287 286 285 286 286 287 287 286 287 287 287 289 289 296 296 289 288 286 285 286 289
Wind_Speed
6 4 5 6 8 8 7 7 11 14 14 8 6 6 7 5 5 2 2 3 1 1
6 7 7 8 6 7 9 8 9 13 13 12 11 10 9 7 9 4 0 2 2 4
6 7 7 6 8 10 10 9 9 11 13 8 12 11 12 9 9 8 6 5 4 1
7 8 6 6 7 9 9 8 9 11 11 10 11 12 10 10 11 10 8 7 6 7
7 7 6 6 7 7 8 7 9 8 10 10 6 9 8 11 10 11 11 9 8 7
7 6 7 7 7 6 7 7 8 9 9 11 10 4 5 6 10 9 9 9 9 8
7 6 6 6 7 6 6 6 6 7 9 9 12 4 4 8 4 8 9 9 10 10
6 6 6 7 7 7 5 5 6 7 9 9 10 7 4 7 5 6 6 9 7 10
6 6 6 6 7 6 6 4 5 6 7 10 8 21 19 12 7 6 6 7 9 9
6 6 6 6 7 8 6 5 3 5 6 7 9 20 19 16 5 5 5 6 7 6
6 6 6 6 7 7 5 5 4 4 5 6 7 19 15 16 6 5 5 6 6 8
6 6 6 7 7 6 5 5 5 4 6 5 6 19 19 7 4 5 6 5 7 6
6 6 6 6 7 4 4 5 5 7 6 12 6 17 19 13 3 4 4 5 5 13
6 6 5 6 4 5 6 6 7 7 7 7 10 9 19 19 5 3 3 4 5 6
Wind_Direction
341 329 318 327 323 325 317 337 359 357 354 4 345 321 304 301 295 309 150 286 169 274
337 341 324 321 332 335 336 340 1 5 357 9 10 12 1 3 4 350 127 257 252 214
341 340 333 334 343 340 340 343 0 354 4 357 14 16 21 5 7 22 27 12 316 307
347 340 334 337 340 347 345 350 3 360 354 4 23 20 17 9 11 13 15 9 7 13
343 337 347 334 338 342 359 348 5 353 359 353 357 31 26 24 13 8 6 359 2 353
344 344 348 350 334 346 358 360 352 359 350 351 350 353 35 31 26 11 6 353 348 350
344 349 346 342 347 333 357 4 358 353 351 341 345 338 28 28 26 19 13 5 359 344
340 351 348 349 341 334 350 9 358 354 350 350 346 14 58 8 23 12 359 359 358 357
342 354 344 342 338 337 334 352 7 353 338 349 343 30 30 37 3 10 4 359 355 11
342 353 346 332 339 340 331 341 322 335 342 339 333 27 38 32 13 3 359 1 345 343
346 349 346 345 338 334 330 329 327 323 337 344 348 11 35 34 8 8 352 354 348 350
344 348 347 346 336 330 345 333 337 342 345 342 342 6 17 37 9 358 359 356 344 357
347 356 351 343 337 329 339 343 346 350 350 9 353 3 12 24 3 2 353 334 325 342
351 346 8 353 348 349 354 354 353 354 345 348 6 359 13 15 15 10 351 329 326 316